TimeAKDT,TemperatureF,Dew PointF,Humidity,Sea Level PressureIn,VisibilityMPH,Wind Direction,Wind SpeedMPH,Gust SpeedMPH,PrecipitationIn,Events,Conditions,WindDirDegrees,DateUTC
12:53 AM,18.0,5.0,57,30.04,10.0,NE,12.7,18.4,N/A,,Scattered Clouds,50,2012-11-03 08:53:00
1:53 AM,18.0,3.0,52,30.05,10.0,NNE,8.1,-,N/A,,Partly Cloudy,30,2012-11-03 09:53:00
2:53 AM,15.1,3.0,59,30.05,10.0,North,8.1,-,N/A,,Scattered Clouds,350,2012-11-03 10:53:00
3:53 AM,16.0,3.0,57,30.05,10.0,North,10.4,19.6,N/A,,Scattered Clouds,360,2012-11-03 11:53:00
4:53 AM,14.0,3.9,64,30.05,10.0,NNW,9.2,-,N/A,,Scattered Clouds,340,2012-11-03 12:53:00
5:53 AM,15.1,1.9,56,30.06,10.0,NNW,4.6,-,N/A,,Scattered Clouds,330,2012-11-03 13:53:00
6:53 AM,15.1,1.9,56,30.06,10.0,Calm,Calm,-,N/A,,Partly Cloudy,0,2012-11-03 14:53:00
7:53 AM,12.0,1.9,64,30.07,10.0,Calm,Calm,-,N/A,,Scattered Clouds,0,2012-11-03 15:53:00
8:53 AM,10.9,1.9,67,30.06,10.0,Calm,Calm,-,N/A,,Scattered Clouds,0,2012-11-03 16:53:00
9:53 AM,15.1,-0.0,51,30.06,10.0,Calm,Calm,-,N/A,,Clear,0,2012-11-03 17:53:00
10:53 AM,14.0,-0.0,54,30.06,10.0,Calm,Calm,-,N/A,,Clear,0,2012-11-03 18:53:00
11:53 AM,12.0,1.9,64,30.06,10.0,NE,5.8,-,N/A,,Partly Cloudy,40,2012-11-03 19:53:00
12:53 PM,19.0,-0.9,42,30.06,10.0,North,10.4,-,N/A,,Scattered Clouds,10,2012-11-03 20:53:00
1:53 PM,16.0,1.9,54,30.06,10.0,Calm,Calm,-,N/A,,Clear,0,2012-11-03 21:53:00
2:53 PM,19.9,1.0,44,30.07,10.0,North,13.8,-,N/A,,Clear,360,2012-11-03 22:53:00
3:53 PM,19.9,1.0,44,30.06,10.0,North,8.1,-,N/A,,Partly Cloudy,10,2012-11-03 23:53:00
4:53 PM,21.0,-2.0,36,30.05,10.0,North,15.0,18.4,N/A,,Partly Cloudy,350,2012-11-04 00:53:00
5:53 PM,19.0,-0.0,43,30.06,10.0,Calm,Calm,-,N/A,,Scattered Clouds,0,2012-11-04 01:53:00
6:53 PM,18.0,1.0,48,30.05,10.0,North,9.2,-,N/A,,Scattered Clouds,350,2012-11-04 02:53:00
7:53 PM,14.0,1.9,59,30.05,10.0,Calm,Calm,-,N/A,,Scattered Clouds,0,2012-11-04 03:53:00
8:53 PM,17.1,1.0,50,30.06,10.0,Variable,3.5,-,N/A,,Partly Cloudy,0,2012-11-04 04:53:00
9:53 PM,18.0,-0.0,45,30.06,10.0,North,13.8,-,N/A,,Partly Cloudy,360,2012-11-04 05:53:00
10:53 PM,16.0,1.0,52,30.07,10.0,Calm,Calm,-,N/A,,Clear,0,2012-11-04 06:53:00
11:53 PM,16.0,1.0,52,30.07,10.0,Calm,Calm,-,N/A,,Clear,0,2012-11-04 07:53:00